Погода в Бердыше

Россия / Республика Коми     61°36′31″N   57°59′03″E
темп.,
°C
ветер,
м/с
пор.,
м/с
влажн.,
%
обл.,
%
осадки,
мм/ч
давл.,
гПа
погр.,
м
13 мая, чт
чт1300:00+13з3117959 0.0 1024236
03:00+11з118845 0.0 102526
06:00+17зсз126899 0.0 1025286
09:00+22з234818 0.0 1025849
12:00+25зсз35351 0.0 10242363
15:00+26з353147 0.0 10232493
18:00+22юз224494 0.0 102249
21:00+17ююз266460 0.0 102291
14 мая, пт
пт1400:00+15ююз39704 0.0 1022147
03:00+13ююз26765 0.0 1021127
06:00+19юз385735 0.1 1020366
09:00+24зюз59395 0.1 10191585
12:00+25з6113689 0.0 10182770
15:00+25юз4104097 0.1 10172456
18:00+18ююз41372100 1.6 1015344
21:00+16зюз2380100 1.8 101641
15 мая, сб
сб1500:00+14ююз118784 0.6 101611
03:00+14ю229056 0.9 101527
06:00+15юз248994 2.4 1016204
09:00+21зсз47509 3.8 10161474
12:00+24з583470 0.0 10152619
15:00+24з483381 0.0 10152673
18:00+21з244694 0.0 101482
21:00+16ю2266100 0.0 101311
16 мая, вс
вс1600:00+15зюз2684100 0.9 1013177
03:00+14ю2995100 2.7 1012257
06:00+17юз478114 0.4 1011532
09:00+22зюз6115410 0.1 10091373
12:00+26зюз7144083 0.0 10082765
15:00+22зсз4851100 0.1 1007890
18:00+16с258758 6.6 1009256
21:00+13сз1197100 9.4 101011
17 мая, пн
пн1700:00+12вюв1197100 2.5 101012
03:00+12ююв259711 3.1 1011116
06:00+15ю358443 2.9 1010495
09:00+18з467198 7.1 10101073
12:00+17зсз3574100 2.5 1011972
15:00+11ссз3592100 3.9 1013346
18:00+10ссз3490100 0.0 1014348
21:00+7ссв2489100 0.0 1016285